This demonstration page uses our WeatherBlox Daily Observations layout. Learn more.

Left ArrowRight Arrow

36.19886, -115.1175

Hourly Observations for January 19, 2022

Temp ( °F °C ) Dew Point ( °F °C ) Humidity (%) Winds ( mph kmh ) Pressure ( in mb ) Visibility ( mi km ) Precip ( " mm )
12:53 am 00:53 Clear 45 7.2 35 1.7 68 68 NW 6 9 30.14 1021 10 16 0.00 0.00
1:53 am 01:53 Clear 42 5.6 34 1.1 73 73 WNW 6 9 30.14 1021 10 16 0.00 0.00
2:53 am 02:53 Clear 44 6.7 32 0 63 63 WNW 8 13 30.14 1021 10 16 0.00 0.00
3:53 am 03:53 Clear 47 8.3 31 -0.6 54 54 NW 9 15 30.14 1021 10 16 0.00 0.00
4:53 am 04:53 Clear 46 7.8 31 -0.6 56 56 N 5 7 30.15 1021 10 16 0.00 0.00
5:53 am 05:53 Clear 44 6.7 31 -0.6 60 60 WNW 5 7 30.17 1022 10 16 0.00 0.00
6:53 am 06:53 Sunny 43 6.1 31 -0.6 63 63 NNW 6 9 30.19 1022 10 16 0.00 0.00
7:53 am 07:53 Sunny 45 7.2 30 -1.1 56 56 NNW 5 7 30.21 1023 10 16 0.00 0.00
8:53 am 08:53 Sunny 52 11.1 29 -1.7 41 41 N 6 9 30.22 1024 10 16 0.00 0.00
9:53 am 09:53 Sunny 56 13.3 29 -1.7 36 36 N 6 9 30.24 1024 10 16 0.00 0.00
10:53 am 10:53 Sunny 59 15 29 -1.7 32 32 NNE 3 6 30.24 1024 10 16 0.00 0.00
11:53 am 11:53 Sunny 60 15.6 31 -0.6 33 33 E 6 9 30.21 1023 10 16 0.00 0.00
12:53 pm 12:53 Sunny 61 16.1 29 -1.7 30 30 VRB 7 11 30.18 1022 10 16 0.00 0.00
1:53 pm 13:53 Sunny 63 17.2 27 -2.8 26 26 ESE 9 15 30.16 1022 10 16 0.00 0.00
2:53 pm 14:53 Sunny 64 17.8 26 -3.3 24 24 ESE 7 11 30.16 1021 10 16 0.00 0.00
3:53 pm 15:53 Sunny 63 17.2 27 -2.8 26 26 SE 7 11 30.17 1022 10 16 0.00 0.00
4:53 pm 16:53 Sunny 61 16.1 27 -2.8 27 27 SSE 5 7 30.18 1022 10 16 0.00 0.00
5:53 pm 17:53 Clear 60 15.6 27 -2.8 28 28 SW 5 7 30.21 1023 10 16 0.00 0.00
6:53 pm 18:53 Clear 55 12.8 29 -1.7 37 37 W 6 9 30.24 1024 10 16 0.00 0.00
7:53 pm 19:53 Clear 54 12.2 28 -2.2 37 37 WNW 5 7 30.25 1024 10 16 0.00 0.00
8:53 pm 20:53 Clear 53 11.7 25 -3.9 34 34 WNW 3 6 30.26 1025 10 16 0.00 0.00
9:53 pm 21:53 Clear 53 11.7 23 -5 31 31 NNE 8 13 30.28 1025 10 16 0.00 0.00
10:53 pm 22:53 Clear 55 12.8 22 -5.6 28 28 N 10 17 30.30 1026 10 16 0.00 0.00
11:53 pm 23:53 Clear 54 12.2 22 -5.6 29 29 Calm 30.31 1026 10 16 0.00 0.00

Powered by AerisWeather